Location: Middlebury
(44.0133°N, 73.1813°W)
Time: 04:52:27
(UTC-04:00)

Envisat - Pass Details

Date: 06 February 2022
Orbit: 764 x 765 km, 98.2° (Epoch: 21 May)

Event Time Altitude Azimuth Distance (km) Brightness Sun altitude
Rises 05:48:08 0° 3° (N) 3,242 6.2 -14.0°
Reaches altitude 10° 05:50:43 10° 352° (N) 2,311 5.3 -13.6°
Maximum altitude 05:55:00 28° 295° (WNW) 1,404 3.8 -12.8°
Drops below altitude 10° 05:59:16 10° 237° (WSW) 2,300 5.0 -12.1°
Sets 06:01:50 0° 226° (SW) 3,222 5.9 -11.6°
